Location: Waco, TX
(31.5480°N, 97.1670°W)
Time: 13:50:26

ISS - Pass Details

Date: 21 March 2018
Orbit: 403 x 406 km, 51.6° (Epoch: 21 March)

Event Time Altitude Azimuth Distance (km) Brightness Sun altitude
Rises 20:48:16 0° 199° (SSW) 2,305 0.1 -15.1°
Reaches altitude 10° 20:50:35 10° 184° (S) 1,450 -1.1 -15.6°
Enters shadow 20:52:07 19° 161° (SSE) 1,015 -2.1 -15.9°
Maximum altitude 20:53:16 24° 129° (SE) 889 - -16.1°
Drops below altitude 10° 20:55:58 10° 73° (ENE) 1,458 - -16.7°
Sets 20:58:17 0° 59° (ENE) 2,321 - -17.2°
